Location: Rounton
(54.4000°N, 1.3500°W)
Time: 00:45:14
(UTC+00:00)

Vanguard 3 - All Passes

Search period start: 30 November 2021 00:00
Search period end: 10 December 2021 00:00
Orbit: 509 x 3260 km, 33.3° (Epoch: 29 November)

Date Brightness Start Highest point End Pass type
(mag) Time Alt. Az. Time Alt. Az. Time Alt. Az.
30 Nov - 02:50:08 10° S 02:59:06 15° SE 03:07:11 10° ESE visible
30 Nov - 04:57:43 10° SSW 05:11:38 27° SSE 05:22:17 10° ESE visible
30 Nov - 07:10:59 10° WSW 07:24:07 29° S 07:33:13 10° SE visible
30 Nov - 09:27:09 10° WSW 09:35:15 19° SSW 09:41:18 10° S daylight
01 Dec - 03:43:06 10° SSW 03:56:17 23° SSE 04:07:18 10° ESE visible
01 Dec - 05:54:29 10° SW 06:09:05 31° S 06:19:42 10° ESE visible
01 Dec - 08:09:24 10° WSW 08:21:08 26° SSW 08:29:21 10° SSE daylight
01 Dec - 10:28:54 10° WSW 10:31:24 11° SW 10:33:40 10° SSW daylight
02 Dec - 02:30:07 10° S 02:41:01 18° SE 02:50:56 10° ESE visible
02 Dec - 04:38:43 10° SW 04:53:43 30° SSE 05:05:29 10° ESE visible
02 Dec - 06:52:15 10° WSW 07:06:27 31° S 07:16:27 10° SE visible
02 Dec - 09:08:43 10° WSW 09:17:44 19° SW 09:24:28 10° S daylight
03 Dec - 01:20:48 10° SSE 01:26:02 12° SE 01:31:09 10° ESE visible
03 Dec - 03:23:58 10° SSW 03:38:12 26° SSE 03:50:27 10° ESE visible
03 Dec - 05:35:42 10° SW 05:51:14 33° S 06:02:50 10° ESE visible
03 Dec - 07:50:48 10° WSW 08:03:29 27° SSW 08:12:31 10° SSE daylight
03 Dec - 10:10:42 10° WSW 10:13:50 11° SW 10:16:38 10° SSW daylight
04 Dec - 02:10:40 10° S 02:22:49 20° SE 02:34:12 10° ESE visible
04 Dec - 04:19:54 10° SW 04:35:41 32° SSE 04:48:30 10° ESE visible
04 Dec - 06:33:35 10° WSW 06:48:38 32° SSW 06:59:33 10° SE visible
04 Dec - 08:50:17 10° WSW 09:00:04 20° SW 09:07:28 10° S daylight
05 Dec - 00:59:57 10° SSE 01:07:47 14° SE 01:15:33 10° ESE visible
05 Dec - 03:05:07 10° SSW 03:20:02 28° SSE 03:33:22 10° ESE visible
05 Dec - 05:17:02 10° SW 05:33:15 34° S 05:45:49 10° ESE visible
05 Dec - 07:32:14 10° WSW 07:45:41 27° SSW 07:55:30 10° SSE daylight
05 Dec - 09:52:41 10° WSW 09:56:07 11° SW 09:59:13 10° SSW daylight
06 Dec - 01:51:38 10° S 02:04:33 23° SSE 02:17:06 10° ESE visible
06 Dec - 04:01:18 10° SW 04:17:31 34° S 04:31:20 10° ESE visible
06 Dec - 06:15:01 10° WSW 06:30:40 33° SSW 06:42:28 10° SE visible
06 Dec - 08:31:54 10° WSW 08:42:15 20° SW 08:50:16 10° S daylight
07 Dec - 00:40:17 10° SSE 00:49:28 16° SE 00:58:54 10° ESE visible
07 Dec - 02:46:31 10° SSW 03:01:45 30° SSE 03:16:03 10° ESE visible
07 Dec - 04:58:32 10° WSW 05:15:07 36° S 05:28:37 10° SE visible
07 Dec - 07:13:45 10° WSW 07:27:44 28° SSW 07:38:20 10° SSE visible
07 Dec - 09:34:53 10° WSW 09:38:17 11° SW 09:41:23 10° SW daylight
08 Dec - 01:32:58 10° SSW 01:46:13 25° SSE 01:59:43 10° ESE visible
08 Dec - 03:42:53 10° SW 03:59:17 35° S 04:13:58 10° ESE visible
08 Dec - 05:56:34 10° WSW 06:12:35 33° SSW 06:25:13 10° SE visible
08 Dec - 08:13:34 10° WSW 08:24:18 20° SW 08:32:51 10° S daylight
09 Dec - 00:21:13 10° S 00:31:08 17° SE 00:41:44 10° ESE visible
09 Dec - 02:28:10 10° SSW 02:43:25 32° SSE 02:58:31 10° ESE visible
09 Dec - 04:40:12 10° WSW 04:56:55 36° S 05:11:14 10° SE visible
09 Dec - 06:55:21 10° WSW 07:09:40 27° SSW 07:20:58 10° SSE visible
09 Dec - 09:17:32 10° WSW 09:20:18 11° SW 09:22:54 10° SW daylight
